Location: Boiro
(42.6475°N, 8.8834°W)
Time: 03:05:12
(UTC+01:00)

Vanguard 1 Rocket - Pass Details

Date: 02 December 2021
Orbit: 651 x 4225 km, 34.3° (Epoch: 26 January)

Event Time Altitude Azimuth Distance (km) Brightness Sun altitude
Exits shadow 02:30:33 17° 101° (E) 4,574 10.9 -65.2°
Drops below altitude 10° 02:35:09 10° 88° (E) 5,658 11.6 -64.7°
Sets 02:42:06 0° 78° (ENE) 7,341 12.3 -63.8°
